EW5980 Weather Reports


Display with metric or nautical units.
time (UTC)temp
F
wind
direction
speed
MPH
gust
MPH
rain 1hr
in
rain 24hr
in
rain mn
in
humidity
%
barometer
mb
20260505173046 77 0.0 0.0 0.00 0.00 0.00 64 1012.0
20260505171547 76 0.0 0.0 0.00 0.00 0.00 65 1012.1
20260505170043 76 0.0 0.0 0.00 0.00 0.00 65 1012.4
20260505164542 75 0.0 0.0 0.00 0.00 0.00 67 1012.4
20260505163046 75 0.0 0.0 0.00 0.00 0.00 67 1012.6
20260505161552 75 0.0 0.0 0.00 0.00 0.00 66 1012.5
20260505153040 74 0.0 0.0 0.00 0.00 0.00 68 1012.6
20260505151539 73 0.0 0.0 0.00 0.00 0.00 69 1012.6
20260505124542 62 0.0 0.0 0.00 0.00 0.00 62 1012.9
20260505123040 62 0.0 0.0 0.00 0.00 0.00 57 1012.8
20260505121546 61 0.0 0.0 0.00 0.00 0.00 56 1012.7
20260505120042 60 0.0 0.0 0.00 0.00 0.00 55 1012.5
20260505114542 60 0.0 0.0 0.00 0.00 0.00 53 1012.2
20260505113048 59 0.0 0.0 0.00 0.00 0.00 53 1012.1
20260505111541 59 0.0 0.0 0.00 0.00 0.00 57 1012.2
20260505101559 59 0.0 0.0 0.00 0.00 0.00 65 1012.4
20260505100057 60 0.0 0.0 0.00 0.00 0.00 67 1012.4
20260505094539 60 0.0 0.0 0.00 0.00 0.00 69 1012.4
20260505093053 60 0.0 0.0 0.00 0.00 0.00 70 1012.5
20260505091545 61 0.0 0.0 0.00 0.00 0.00 71 1012.5
20260505090045 61 0.0 0.0 0.00 0.00 0.00 72 1012.4
20260505084543 61 0.0 0.0 0.00 0.00 0.00 72 1012.4
20260505083045 61 0.0 0.0 0.00 0.00 0.00 72 1012.3
20260505081558 62 0.0 0.0 0.00 0.00 0.00 72 1012.4
20260505080053 62 0.0 0.0 0.00 0.00 0.00 72 1012.3
20260505074543 62 0.0 0.0 0.00 0.00 0.00 73 1012.3
20260505073048 62 0.0 0.0 0.00 0.00 0.00 72 1012.6
20260505071550 62 0.0 0.0 0.00 0.00 0.00 72 1012.7
20260505070045 62 0.0 0.0 0.00 0.00 0.00 72 1013.1
20260505064542 63 0.0 0.0 0.00 0.00 0.00 72 1013.3
20260505063048 63 0.0 0.0 0.00 0.00 0.00 72 1013.4
20260505061546 64 0.0 0.0 0.00 0.00 0.00 71 1013.5
20260505060042 64 0.0 0.0 0.00 0.00 0.00 70 1013.4
20260505054545 64 0.0 0.0 0.00 0.00 0.00 70 1013.4
20260505053048 65 0.0 0.0 0.00 0.00 0.00 69 1013.4
20260505051545 65 0.0 0.0 0.00 0.00 0.00 68 1013.6
20260505041546 65 0.0 0.0 0.00 0.00 0.00 68 1013.6
20260505040042 65 0.0 0.0 0.00 0.00 0.00 68 1013.5
20260505034547 65 0.0 0.0 0.00 0.00 0.00 68 1013.4
20260505033041 66 0.0 0.0 0.00 0.00 0.00 67 1013.2
20260505031544 66 0.0 0.0 0.00 0.00 0.00 67 1013.2
20260505030045 66 0.0 0.0 0.00 0.00 0.00 67 1013.1
20260505024542 67 0.0 0.0 0.00 0.00 0.00 65 1013.0
20260505023049 68 0.0 0.0 0.00 0.00 0.00 63 1012.9
20260505021544 68 0.0 0.0 0.00 0.00 0.00 62 1012.7
20260505020049 69 0.0 0.0 0.00 0.00 0.00 61 1012.6
20260505014551 69 0.0 0.0 0.00 0.00 0.00 60 1012.5
20260505013046 70 0.0 0.0 0.00 0.00 0.00 58 1012.2
20260505011544 71 0.0 0.0 0.00 0.00 0.00 55 1012.3
20260505010105 72 0.0 0.0 0.00 0.00 0.00 53 1012.3
20260505004543 73 0.0 0.0 0.00 0.00 0.00 51 1012.1
20260505003044 74 0.0 0.0 0.00 0.00 0.00 50 1012.2
20260505001546 75 0.0 0.0 0.00 0.00 0.00 47 1012.2
20260505000049 75 0.0 0.0 0.00 0.00 0.00 46 1012.3
20260504234545 76 0.0 0.0 0.00 0.00 0.00 46 1012.5
20260504233042 76 0.0 0.0 0.00 0.00 0.00 46 1012.6
20260504231546 76 0.0 0.0 0.00 0.00 0.00 45 1012.8
20260504230046 77 0.0 0.0 0.00 0.00 0.00 44 1012.8
20260504224544 77 0.0 0.0 0.00 0.00 0.00 44 1012.9
20260504223058 77 0.0 0.0 0.00 0.00 0.00 43 1013.1
20260504221555 78 0.0 0.0 0.00 0.00 0.00 42 1013.2
20260504220044 78 0.0 0.0 0.00 0.00 0.00 43 1013.3
20260504214540 78 0.0 0.0 0.00 0.00 0.00 42 1013.4
20260504213058 78 0.0 0.0 0.00 0.00 0.00 41 1013.4
20260504211549 78 0.0 0.0 0.00 0.00 0.00 42 1013.8
20260504210043 78 0.0 0.0 0.00 0.00 0.00 41 1013.8
20260504204542 79 0.0 0.0 0.00 0.00 0.00 42 1014.0
20260504203048 79 0.0 0.0 0.00 0.00 0.00 42 1014.0
20260504201540 79 0.0 0.0 0.00 0.00 0.00 41 1014.3
20260504200046 79 0.0 0.0 0.00 0.00 0.00 42 1014.6
20260504194551 80 0.0 0.0 0.00 0.00 0.00 41 1015.1
20260504193043 79 0.0 0.0 0.00 0.00 0.00 42 1015.2
20260504191543 79 0.0 0.0 0.00 0.00 0.00 43 1015.4
20260504190042 80 0.0 0.0 0.00 0.00 0.00 42 1015.5
20260504184537 81 0.0 0.0 0.00 0.00 0.00 43 1015.6
20260504183045 80 0.0 0.0 0.00 0.00 0.00 43 1015.7
20260504181541 80 0.0 0.0 0.00 0.00 0.00 44 1015.8
20260504180048 80 0.0 0.0 0.00 0.00 0.00 42 1016.1
20260504174544 80 0.0 0.0 0.00 0.00 0.00 42 1016.3